(273653) = 2007 DA81

Discovered at Kitt Peak on 2007-02-23 by Spacewatch.

Orbit

Orbit type: Main Belt

Note: WebGL enabled browser required.

epoch2023-09-13.0
epoch JD2460200.5
perihelion date2023-04-04.01920
perihelion JD2460038.51920
argument of perihelion (°)243.04268
ascending node (°)25.59327
inclination (°)2.10996
eccentricity0.1894003
perihelion distance (AU)1.9703291
Tisserand w.r.t. Jupiter3.5
ΔV w.r.t. Earth (km/sec)8.8
semimajor axis (AU)2.4307056
mean anomaly (°)42.12781
mean daily motion (°/day)0.26007900
aphelion distance (AU)2.891
period (years)3.79
P-vector [x]-0.02406593
P-vector [y]-0.90366813
P-vector [z]-0.42755671
Q-vector [x]0.99958385
Q-vector [y]-0.01494718
Q-vector [z]-0.02467187
absolute magnitude17.16
phase slope0.15
uncertainty0
referenceMPEC 2024-A48
observations used403
oppositions13
arc length (days)6545
first opposition used2005
last opposition used2023
residual rms (arc-secs)0.76
perturbers coarse indicatorM-v
perturbers precise indicator003Ek
first observation date used2005-11-12.0
last observation date used2023-10-14.0
computer nameMPCLINUX
JD of orbit computation2456670.668402
perihelion JD uncertainty (days)9.0444E-05
argument of perihelion uncertainty (°)1.1309E-04
ascending node uncertainty (°)1.1076E-04
inclination uncertainty (°)6.8630E-06
eccentricity uncertainty 2.9887E-08
perihelion distance uncertainty (AU)7.0714E-08
Minimum Orbit Intersection Distances (in AU)
for orbit epoch: 2460200.5, reference: E2024-A48
Mercury1.50561
Venus1.24364
Earth0.95472
Mars0.48266
Jupiter2.19925
Saturn6.16681
Uranus15.8325
Neptune27.0794

Observations

409 total observations over interval: 2005 11 12.42234 – 2023 10 14.264061
These data are available for download (format description).

Date (UT) J2000 RA J2000 Dec Magn Location Ref
2005 11 12.42234 04 50 51.89 +24 31 58.1 21.2 V 691 – Steward Observatory, Kitt Peak-Spacewatch MPS 209023
2005 11 12.43989 04 50 50.92 +24 31 57.3 21.3 V 691 – Steward Observatory, Kitt Peak-Spacewatch MPS 209023
2005 11 12.45741 04 50 49.94 +24 31 56.5 21.1 V 691 – Steward Observatory, Kitt Peak-Spacewatch MPS 209023
2005 12 21.09693 04 11 17.97 +23 25 35.0 21.4 V 691 – Steward Observatory, Kitt Peak-Spacewatch MPS 209023
2005 12 21.11225 04 11 17.09 +23 25 33.2 21.7 V 691 – Steward Observatory, Kitt Peak-Spacewatch MPS 209023
2005 12 21.12755 04 11 16.32 +23 25 30.6 21.7 V 691 – Steward Observatory, Kitt Peak-Spacewatch MPS 209023
2005 12 31.24154 04 03 48.45 +23 04 38.3 21.6 V G96 – Mt. Lemmon Survey MPS 209023
2005 12 31.25037 04 03 48.09 +23 04 36.8 21.5 V G96 – Mt. Lemmon Survey MPS 209023
2005 12 31.25784 04 03 47.80 +23 04 36.3 21.1 V G96 – Mt. Lemmon Survey MPS 209023
2005 12 31.26531 04 03 47.55 +23 04 35.0 20.9 V G96 – Mt. Lemmon Survey MPS 209023
2007 02 09.36252 10 57 43.45 +09 30 45.0   691 – Steward Observatory, Kitt Peak-Spacewatch MPS 209023
2007 02 09.38021 10 57 42.70 +09 30 49.9   691 – Steward Observatory, Kitt Peak-Spacewatch MPS 209023
2007 02 09.39789 10 57 41.82 +09 30 54.9   691 – Steward Observatory, Kitt Peak-Spacewatch MPS 209023
2007 02 23.25151 10 45 35.28 +10 42 34.9 20.5 V 691 – Steward Observatory, Kitt Peak-Spacewatch MPS 201655
2007 02 23.26921 10 45 34.23 +10 42 40.5 20.7 V 691 – Steward Observatory, Kitt Peak-Spacewatch MPS 201655
2007 02 23.28691 10 45 33.17 +10 42 46.3 20.8 V 691 – Steward Observatory, Kitt Peak-Spacewatch MPS 201655
2007 02 25.25126 10 43 38.06 +10 53 25.8 19.9 V G96 – Mt. Lemmon Survey MPS 201655
2007 02 25.25896 10 43 37.56 +10 53 28.8 20.4 V G96 – Mt. Lemmon Survey MPS 201655
2007 02 25.26669 10 43 37.09 +10 53 31.8 20.2 V G96 – Mt. Lemmon Survey MPS 201655
2007 02 25.27434 10 43 36.62 +10 53 34.3 20.4 V G96 – Mt. Lemmon Survey MPS 201655
2007 03 15.25904 10 26 06.14 +12 22 28.1 20.5 V G96 – Mt. Lemmon Survey MPS 209023
2007 03 15.26782 10 26 05.67 +12 22 30.4 20.6 V G96 – Mt. Lemmon Survey MPS 209023
2007 03 15.27662 10 26 05.17 +12 22 32.4 20.8 V G96 – Mt. Lemmon Survey MPS 209023
2007 03 15.28537 10 26 04.66 +12 22 34.7 20.7 V G96 – Mt. Lemmon Survey MPS 209023
2008 07 30.42786 23 37 34.53 -05 24 42.6   691 – Steward Observatory, Kitt Peak-Spacewatch MPS 253605
2008 07 30.44545 23 37 34.29 -05 24 44.3   691 – Steward Observatory, Kitt Peak-Spacewatch MPS 253605
2008 07 30.46304 23 37 34.05 -05 24 45.6   691 – Steward Observatory, Kitt Peak-Spacewatch MPS 253605
2008 08 07.36085 23 35 05.53 -05 41 36.2   691 – Steward Observatory, Kitt Peak-Spacewatch MPS 253605
2008 08 07.37844 23 35 05.03 -05 41 39.4   691 – Steward Observatory, Kitt Peak-Spacewatch MPS 253605
2008 08 07.39602 23 35 04.53 -05 41 42.3   691 – Steward Observatory, Kitt Peak-Spacewatch MPS 253605
2008 09 23.24470 22 57 01.83 -09 03 03.3 20.0 V G96 – Mt. Lemmon Survey MPS 256763
2008 09 23.25151 22 57 01.51 -09 03 04.6 20.2 V G96 – Mt. Lemmon Survey MPS 256763
2008 09 23.25822 22 57 01.18 -09 03 06.0 20.1 V G96 – Mt. Lemmon Survey MPS 256763
2008 09 23.26486 22 57 00.86 -09 03 07.1 20.1 V G96 – Mt. Lemmon Survey MPS 256763
2011 02 23.38797 12 45 31.04 -03 07 43.3 20.8 V 691 – Steward Observatory, Kitt Peak-Spacewatch MPS 371446
2011 02 23.40570 12 45 30.67 -03 07 42.2 20.6 V 691 – Steward Observatory, Kitt Peak-Spacewatch MPS 371446
2011 02 23.42343 12 45 30.29 -03 07 39.9 20.6 V 691 – Steward Observatory, Kitt Peak-Spacewatch MPS 371446
2011 03 14.55443 12 34 09.403 -02 05 10.83 20.1 r F51 – Pan-STARRS 1, Haleakala MPS 382089
2011 03 14.56552 12 34 08.834 -02 05 07.79 20.1 r F51 – Pan-STARRS 1, Haleakala MPS 382089
2011 03 14.57984 12 34 08.114 -02 05 03.90 20.8 g F51 – Pan-STARRS 1, Haleakala MPS 382089
2011 03 14.59144 12 34 07.505 -02 05 00.96 20.7 g F51 – Pan-STARRS 1, Haleakala MPS 382089
2011 03 24.24888 12 25 31.62 -01 18 16.5 19.7 V 703 – Catalina Sky Survey MPS 375582
2011 03 24.25498 12 25 31.22 -01 18 14.7 19.8 V 703 – Catalina Sky Survey MPS 375582
2011 03 24.26110 12 25 30.90 -01 18 12.9 19.7 V 703 – Catalina Sky Survey MPS 375582
2011 03 24.26719 12 25 30.54 -01 18 11.5 19.6 V 703 – Catalina Sky Survey MPS 375582
2011 03 28.16841 12 21 46.37 -00 58 10.3 20.1 V 691 – Steward Observatory, Kitt Peak-Spacewatch MPS 375582
2011 03 28.18615 12 21 45.32 -00 58 05.0 19.7 V 691 – Steward Observatory, Kitt Peak-Spacewatch MPS 375582
2011 03 28.20387 12 21 44.24 -00 57 59.6 20.0 V 691 – Steward Observatory, Kitt Peak-Spacewatch MPS 375582
2011 03 28.35814 12 21 34.92 -00 57 12.0 19.6 V G96 – Mt. Lemmon Survey MPS 375582
2011 03 28.36329 12 21 34.63 -00 57 10.4 19.6 V G96 – Mt. Lemmon Survey MPS 375582
2011 03 28.36859 12 21 34.30 -00 57 08.8 19.6 V G96 – Mt. Lemmon Survey MPS 375582
2011 03 28.37384 12 21 33.98 -00 57 07.3 19.6 V G96 – Mt. Lemmon Survey MPS 375582
2011 03 29.33107 12 20 38.47 -00 52 12.0 19.4 V G96 – Mt. Lemmon Survey MPS 375582
2011 03 29.33259 12 20 38.36 -00 52 11.8 19.3 V G96 – Mt. Lemmon Survey MPS 375582
2011 03 29.33413 12 20 38.29 -00 52 10.7 19.5 V G96 – Mt. Lemmon Survey MPS 375582
2011 03 29.33567 12 20 38.18 -00 52 10.7 19.2 V G96 – Mt. Lemmon Survey MPS 375582
2011 04 02.17515 12 16 55.72 -00 32 39.3 20.0 V 691 – Steward Observatory, Kitt Peak-Spacewatch MPS 377193
2011 04 02.19287 12 16 54.65 -00 32 34.0 19.9 V 691 – Steward Observatory, Kitt Peak-Spacewatch MPS 377193
2011 04 02.21060 12 16 53.61 -00 32 28.5 19.9 V 691 – Steward Observatory, Kitt Peak-Spacewatch MPS 377193
2011 04 08.17973 12 11 17.05 -00 03 41.5 19.8 R H15 – ISON-NM Observatory, Mayhill MPS 377193
2011 04 08.19320 12 11 16.28 -00 03 37.4 19.8 R H15 – ISON-NM Observatory, Mayhill MPS 377193
2011 04 08.20678 12 11 15.49 -00 03 33.2 19.8 R H15 – ISON-NM Observatory, Mayhill MPS 377193
2011 04 08.22180 12 11 14.63 -00 03 28.6 19.8 R H15 – ISON-NM Observatory, Mayhill MPS 377193
2011 04 13.20858 12 06 53.60 +00 18 01.5 19.9 V G96 – Mt. Lemmon Survey MPS 378670
2011 04 13.21595 12 06 53.20 +00 18 03.4 19.9 V G96 – Mt. Lemmon Survey MPS 378670
2011 04 13.22331 12 06 52.84 +00 18 05.1 20.0 V G96 – Mt. Lemmon Survey MPS 378670
2011 04 13.23072 12 06 52.48 +00 18 06.8 19.9 V G96 – Mt. Lemmon Survey MPS 378670
2011 04 25.19744 11 58 30.75 +00 55 39.5 20.0 V G96 – Mt. Lemmon Survey MPS 381140
2011 04 25.20435 11 58 30.50 +00 55 40.3 20.2 V G96 – Mt. Lemmon Survey MPS 381140
2011 04 25.21131 11 58 30.25 +00 55 41.1 20.1 V G96 – Mt. Lemmon Survey MPS 381140
2011 04 25.21830 11 58 30.00 +00 55 42.3 20.0 V G96 – Mt. Lemmon Survey MPS 381140
2011 04 29.18115 11 56 33.07 +01 02 47.7 19.7 V G96 – Mt. Lemmon Survey MPS 381140
2011 04 29.18718 11 56 32.89 +01 02 48.1 20.2 V G96 – Mt. Lemmon Survey MPS 381140
2011 04 29.19336 11 56 32.71 +01 02 48.7 20.1 V G96 – Mt. Lemmon Survey MPS 381140
2011 04 29.19951 11 56 32.53 +01 02 49.3 20.1 V G96 – Mt. Lemmon Survey MPS 381140
2011 04 29.26321 11 56 30.73 +01 02 54.7 20.0 V G96 – Mt. Lemmon Survey MPS 381140
2011 04 29.26876 11 56 30.58 +01 02 55.2 20.0 V G96 – Mt. Lemmon Survey MPS 381140
2011 04 29.27433 11 56 30.44 +01 02 55.6 20.1 V G96 – Mt. Lemmon Survey MPS 381140
2011 04 29.27990 11 56 30.30 +01 02 56.1 19.9 V G96 – Mt. Lemmon Survey MPS 381140
2012 09 17.42333 01 12 43.63 +06 38 34.6 20.3 V G96 – Mt. Lemmon Survey MPS 433206
2012 09 17.43196 01 12 43.23 +06 38 32.2 20.1 V G96 – Mt. Lemmon Survey MPS 433206
2012 09 17.44059 01 12 42.76 +06 38 31.0 20.2 V G96 – Mt. Lemmon Survey MPS 433206
2012 09 17.44926 01 12 42.33 +06 38 28.1 20.3 V G96 – Mt. Lemmon Survey MPS 433206
2012 09 22.25819 01 08 40.41 +06 17 44.7 20.3 V 691 – Steward Observatory, Kitt Peak-Spacewatch MPS 434022
2012 09 22.27591 01 08 39.47 +06 17 39.8 20.6 V 691 – Steward Observatory, Kitt Peak-Spacewatch MPS 434022
2012 09 22.29364 01 08 38.49 +06 17 34.7 20.2 V 691 – Steward Observatory, Kitt Peak-Spacewatch MPS 434022
2012 09 25.41193 01 05 49.92 +06 03 01.4 20.1 V 703 – Catalina Sky Survey MPS 434022
2012 09 25.41622 01 05 49.74 +06 03 01.4 21.1 V 703 – Catalina Sky Survey MPS 434022
2012 09 25.42059 01 05 49.30 +06 03 00.2 20.5 V 703 – Catalina Sky Survey MPS 434022
